Wise, VA

8:23 PM EST on February 24, 2017 (GMT -0500)
Lonesome Pine

Weather History for KLNP - March, 2014

Change the Weather History Date:

Saturday, March 1, 2014

  Actual Average Record
Temperature  
Mean Temperature 45 °F -  
Max Temperature 55 °F 46 °F 73 °F (1997)
Min Temperature 35 °F 30 °F 15 °F (2002)
Degree Days  
Heating Degree Days 20    
Moisture  
Dew Point 21 °F    
Average Humidity 42    
Maximum Humidity 66    
Minimum Humidity 30    
Precipitation  
Precipitation 0.00 in - - ()
Sea Level Pressure  
Sea Level Pressure 30.16 in    
Wind  
Wind Speed 9 mph (SSW)    
Max Wind Speed 17 mph    
Max Gust Speed 24 mph    
Visibility 10 miles    
Events      
Averages and records for this station are not official NWS values.
T = Trace of Precipitation, MM = Missing Value Source: NWS Daily Summary

Daily Weather History Graph

Daily Weather History Graph

Search for Another Location

Airport or City:

Trip Planner

Search our weather history database for the weather conditions in past years. The results will help you decide how hot, cold, wet, or windy it might be!

Date:

Astronomy

Mar. 01, 2014 Rise Set
Actual Time 7:01 AM EST 6:24 PM EST
Civil Twilight 6:34 AM EST 6:50 PM EST
Nautical Twilight 6:04 AM EST 7:20 PM EST
Astronomical Twilight 5:34 AM EST 7:50 PM EST
Moon 6:55 AM EST (3/1) 7:08 PM EST (3/1)
Length of Visible Light 12h 15m
Length of Day
11h 23m
New Moon, 0% of the Moon is Illuminated
Mar 1
New Moon
Mar 8
First Quarter
Mar 16
Full
Mar 23
Last Quarter
Mar 30
New

Hourly Weather History & Observations

Time (EST) Temp. Windchill Dew Point Humidity Pressure Visibility Wind Dir Wind Speed Gust Speed Precip Events Conditions
12:15 AM 37.4 °F 30.8 °F 8.6 °F 30% 30.11 in 10.0 mi South 9.2 mph - N/A   Overcast
12:35 AM 35.6 °F 29.2 °F 8.6 °F 33% 30.11 in 10.0 mi South 8.1 mph - N/A   Overcast
12:55 AM 35.6 °F 29.9 °F 8.6 °F 33% 30.11 in 10.0 mi South 6.9 mph - N/A   Overcast
1:15 AM 37.4 °F 30.3 °F 8.6 °F 30% 30.11 in 10.0 mi South 10.4 mph - N/A   Overcast
1:35 AM 35.6 °F 27.1 °F 8.6 °F 33% 30.11 in 10.0 mi South 12.7 mph - N/A   Mostly Cloudy
1:55 AM 37.4 °F 30.3 °F 8.6 °F 30% 30.11 in 10.0 mi South 10.4 mph 16.1 mph N/A   Overcast
2:15 AM 37.4 °F 30.3 °F 8.6 °F 30% 30.11 in 10.0 mi South 10.4 mph 17.3 mph N/A   Overcast
2:35 AM 37.4 °F 29.8 °F 8.6 °F 30% 30.12 in 10.0 mi South 11.5 mph - N/A   Overcast
2:55 AM 37.4 °F 29.8 °F 10.4 °F 33% 30.11 in 10.0 mi South 11.5 mph - N/A   Overcast
3:15 AM 37.4 °F 30.8 °F 10.4 °F 33% 30.11 in 10.0 mi SSE 9.2 mph - N/A   Overcast
3:35 AM 35.6 °F 28.6 °F 10.4 °F 35% 30.11 in 10.0 mi SSE 9.2 mph - N/A   Overcast
3:55 AM 35.6 °F 29.2 °F 10.4 °F 35% 30.11 in 10.0 mi SSE 8.1 mph - N/A   Overcast
4:15 AM 37.4 °F 30.3 °F 10.4 °F 33% 30.11 in 10.0 mi South 10.4 mph - N/A   Overcast
4:35 AM 35.6 °F 31.7 °F 10.4 °F 35% 30.12 in 10.0 mi SE 4.6 mph - N/A   Overcast
4:55 AM 37.4 °F 32.1 °F 10.4 °F 33% 30.13 in 10.0 mi SSE 6.9 mph - N/A   Overcast
5:15 AM 37.4 °F 32.1 °F 12.2 °F 36% 30.15 in 10.0 mi West 6.9 mph - N/A   Overcast
5:35 AM 35.6 °F 29.2 °F 12.2 °F 38% 30.16 in 10.0 mi SW 8.1 mph - N/A   Overcast
5:55 AM 37.4 °F 32.1 °F 12.2 °F 36% 30.17 in 10.0 mi SW 6.9 mph - N/A   Overcast
6:15 AM 35.6 °F 29.9 °F 12.2 °F 38% 30.18 in 10.0 mi SSW 6.9 mph - N/A   Overcast
6:35 AM 35.6 °F 30.7 °F 12.2 °F 38% 30.18 in 10.0 mi South 5.8 mph - N/A   Overcast
6:55 AM 35.6 °F - 12.2 °F 38% 30.18 in 10.0 mi Calm Calm - N/A   Overcast
7:15 AM 35.6 °F 32.8 °F 14.0 °F 41% 30.18 in 10.0 mi West 3.5 mph - N/A   Overcast
7:35 AM 35.6 °F 31.7 °F 17.6 °F 48% 30.19 in 10.0 mi SW 4.6 mph - N/A   Overcast
7:55 AM 37.4 °F - 17.6 °F 45% 30.19 in 10.0 mi Calm Calm - N/A   Overcast
8:15 AM 37.4 °F - 17.6 °F 45% 30.20 in 10.0 mi Calm Calm - N/A   Overcast
8:35 AM 37.4 °F 33.8 °F 17.6 °F 45% 30.20 in 10.0 mi SSE 4.6 mph - N/A   Overcast
8:55 AM 37.4 °F 34.9 °F 17.6 °F 45% 30.21 in 10.0 mi SSE 3.5 mph - N/A   Overcast
9:15 AM 37.4 °F 33.8 °F 17.6 °F 45% 30.21 in 10.0 mi South 4.6 mph - N/A   Overcast
9:35 AM 39.2 °F 35.9 °F 17.6 °F 42% 30.21 in 10.0 mi South 4.6 mph - N/A   Overcast
9:55 AM 41.0 °F 37.1 °F 19.4 °F 42% 30.22 in 10.0 mi South 5.8 mph - N/A   Overcast
10:15 AM 41.0 °F 38.0 °F 21.2 °F 45% 30.21 in 10.0 mi SSW 4.6 mph - N/A   Overcast
10:35 AM 42.8 °F 40.1 °F 21.2 °F 42% 30.21 in 10.0 mi WSW 4.6 mph - N/A   Overcast
10:55 AM 42.8 °F 37.0 °F 24.8 °F 49% 30.22 in 10.0 mi SW 10.4 mph - N/A   Overcast
11:15 AM 44.6 °F 38.4 °F 24.8 °F 46% 30.21 in 10.0 mi SW 12.7 mph - N/A   Overcast
11:35 AM 44.6 °F 38.1 °F 24.8 °F 46% 30.21 in 10.0 mi SW 13.8 mph - N/A   Overcast
11:55 AM 44.6 °F 37.8 °F 24.8 °F 46% 30.21 in 10.0 mi WSW 15.0 mph - N/A   Overcast
12:15 PM 48.2 °F - 23.0 °F 37% 30.20 in 10.0 mi WSW 16.1 mph 21.9 mph N/A   Overcast
12:35 PM 48.2 °F - 23.0 °F 37% 30.20 in 10.0 mi WSW 17.3 mph 23.0 mph N/A   Overcast
12:55 PM 51.8 °F - 23.0 °F 33% 30.19 in 10.0 mi SW 17.3 mph - N/A   Overcast
1:15 PM 50.0 °F - 23.0 °F 35% 30.17 in 10.0 mi SSW 12.7 mph - N/A   Overcast
1:35 PM 50.0 °F - 23.0 °F 35% 30.16 in 10.0 mi SW 13.8 mph 24.2 mph N/A   Overcast
1:55 PM 50.0 °F - 23.0 °F 35% 30.16 in 10.0 mi WSW 10.4 mph 18.4 mph N/A   Overcast
2:15 PM 51.8 °F - 23.0 °F 33% 30.15 in 10.0 mi SW 11.5 mph 18.4 mph N/A   Mostly Cloudy
2:35 PM 53.6 °F - 23.0 °F 30% 30.14 in 10.0 mi West 9.2 mph 15.0 mph N/A   Mostly Cloudy
2:55 PM 53.6 °F - 23.0 °F 30% 30.15 in 10.0 mi West 9.2 mph 18.4 mph N/A   Mostly Cloudy
3:15 PM 53.6 °F - 23.0 °F 30% 30.14 in 10.0 mi WSW 12.7 mph 17.3 mph N/A   Scattered Clouds
3:35 PM 55.4 °F - 24.8 °F 31% 30.14 in 10.0 mi West 10.4 mph - N/A   Clear
3:55 PM 55.4 °F - 24.8 °F 31% 30.14 in 10.0 mi WSW 11.5 mph - N/A   Clear
4:15 PM 55.4 °F - 26.6 °F 33% 30.14 in 10.0 mi WSW 11.5 mph 16.1 mph N/A   Clear
4:35 PM 55.4 °F - 26.6 °F 33% 30.14 in 10.0 mi SW 12.7 mph - N/A   Clear
4:55 PM 53.6 °F - 28.4 °F 38% 30.14 in 10.0 mi SW 11.5 mph 17.3 mph N/A   Clear
5:15 PM 53.6 °F - 28.4 °F 38% 30.14 in 10.0 mi SW 15.0 mph - N/A   Scattered Clouds
5:35 PM 53.6 °F - 28.4 °F 38% 30.14 in 10.0 mi SW 11.5 mph - N/A   Scattered Clouds
5:55 PM 51.8 °F - 28.4 °F 41% 30.14 in 10.0 mi SW 8.1 mph - N/A   Scattered Clouds
6:15 PM 50.0 °F - 28.4 °F 43% 30.14 in 10.0 mi SW 5.8 mph - N/A   Scattered Clouds
6:35 PM 46.4 °F 44.3 °F 28.4 °F 50% 30.14 in 10.0 mi SSW 4.6 mph - N/A   Clear
6:55 PM 46.4 °F 44.3 °F 28.4 °F 50% 30.14 in 10.0 mi South 4.6 mph - N/A   Clear
7:15 PM 44.6 °F 42.2 °F 28.4 °F 53% 30.15 in 10.0 mi SW 4.6 mph - N/A   Clear
7:35 PM 44.6 °F 42.2 °F 30.2 °F 57% 30.16 in 10.0 mi SW 4.6 mph - N/A   Clear
7:55 PM 44.6 °F 42.2 °F 30.2 °F 57% 30.16 in 10.0 mi SSW 4.6 mph - N/A   Clear
8:15 PM 42.8 °F 39.3 °F 30.2 °F 61% 30.16 in 10.0 mi SW 5.8 mph - N/A   Clear
8:35 PM 44.6 °F 40.7 °F 30.2 °F 57% 30.17 in 10.0 mi WSW 6.9 mph - N/A   Scattered Clouds
8:55 PM 44.6 °F 42.2 °F 32.0 °F 61% 30.17 in 10.0 mi SSW 4.6 mph - N/A   Mostly Cloudy
9:15 PM 44.6 °F 41.4 °F 32.0 °F 61% 30.17 in 10.0 mi SSW 5.8 mph - N/A   Scattered Clouds
9:35 PM 44.6 °F 39.7 °F 32.0 °F 61% 30.16 in 10.0 mi SSW 9.2 mph - N/A   Clear
9:55 PM 46.4 °F 41.1 °F 32.0 °F 57% 30.16 in 10.0 mi SW 11.5 mph 16.1 mph N/A   Clear
10:15 PM 46.4 °F 40.4 °F 32.0 °F 57% 30.17 in 10.0 mi SW 13.8 mph - N/A   Scattered Clouds
10:35 PM 46.4 °F 40.4 °F 32.0 °F 57% 30.18 in 10.0 mi SW 13.8 mph 21.9 mph N/A   Mostly Cloudy
10:55 PM 44.6 °F 39.7 °F 32.0 °F 61% 30.19 in 10.0 mi WSW 9.2 mph - N/A   Mostly Cloudy
11:15 PM 46.4 °F 40.1 °F 33.8 °F 62% 30.18 in 10.0 mi SW 15.0 mph - N/A   Mostly Cloudy
11:35 PM 44.6 °F 39.2 °F 33.8 °F 66% 30.17 in 10.0 mi SW 10.4 mph - N/A   Mostly Cloudy
11:55 PM 44.6 °F 40.2 °F 33.8 °F 66% 30.17 in 10.0 mi SW 8.1 mph - N/A   Scattered Clouds